International Virtual Aviation Organisation

Russian Federation and Kazakhstan MCD

 

Карточка аэропорта USCC

Внимание!
Информация на этой странице в стадии наполнения.
Если вы не увидели какой-то информации, или заметили неточность - пожалуйста сообщите нам!
Спасибо!
Команда RU-STAFF
Название аэропортаБаландино
Название аэропорта (англ.)Balandino
Превышение769 ft. (234.4 m.)
Координаты55°18.348', 61°30.198'
Высота перехода1500m (5700ft)
Эшелон переходаFL080
Коды ответчика5560-5563
Зона ОрВДЕкатеринбург РПИ (USSV)
Данные METARUSCC 281000Z 32004MPS 4800 BR FEW040 M11/M14 Q1036 R27/450535 NOSIG RMK QFE757
Проноз погоды (TAF)USCC 280800Z 2809/2909 35003G08MPS 5000 BR SCT016 TEMPO 2809/2815 32003G08MPS -SN TEMPO 2815/2909 28003MPS 3100 BR SCT011
NOTAMshow/hide NOTAM
AWOS   TABLE

Информация о ВПП


Диспетчерские позиции

Позывной Наименование органа УВД Частота
USCC_APPЧелябинск-Подход124.7
USCC_TWRЧелябинск-Старт125.2



Спутниковое изображение